[[{"header":{"parameterUnit":"m.s-1","parameterCategory":1,"la1":30.2991,"la2":30.254,"lo1":-89.0895,"lo2":-89.0444,"dy":0.0017,"dx":0.0017,"nx":28,"ny":28,"refTime":"2023-09-18T21:00:00:Z","depth":0,"parameterNumber":2,"parameterNumberName":"U-component_of_WINDS"},"data":[0,0,0,0,0,0,0,0,0,0,0,0,0,0,0,0,0,0,0,0,0,0,0,0,0,0,0,0,0,0,0,0,0,0,0,0,0,0,0,0,0,0,0,0,0,0,0,0,0,0,0,0,0,0,0,0,0,0,-2.9433,-2.9434,0,-2.9469,-2.9469,-2.947,-2.941,-2.9408,-2.9406,-2.9404,-2.9439,-2.9441,-2.9444,0,0,0,0,0,0,0,0,0,0,0,0,0,-2.9313,-2.9316,-2.9433,-2.9434,-2.9434,-2.9469,-2.9469,-2.947,-2.941,-2.9408,-2.9405,-2.9403,-2.9438,-2.9441,-2.9444,0,0,0,0,0,0,0,0,0,0,0,0,0,-2.9359,-2.9316,-2.9433,-2.9409,-2.9407,-2.9469,-2.9469,-2.947,-2.9411,-2.9408,-2.9405,-2.9402,-2.9437,-2.9441,-2.9445,-2.9532,0,0,-2.9458,-2.946,0,0,0,0,0,0,0,0,-2.9356,-2.9363,-2.9412,-2.9411,-2.9409,-2.9432,-2.944,-2.9491,-2.9412,-2.9409,-2.9404,-2.94,-2.9439,-2.9443,-2.9456,-2.9533,-2.9535,-2.9458,-2.9461,-2.9463,-2.9464,0,0,0,0,0,0,0,-2.9353,-2.9361,-2.9447,-2.9413,-2.9411,-2.9396,-2.9399,-2.9449,-2.9441,-2.9409,-2.9405,-2.941,-2.9437,-2.9452,-2.9456,-2.9535,-2.9458,-2.9462,-2.9464,-2.9466,-2.9686,-2.9689,0,0,0,0,0,0,-2.9353,-2.9359,-2.9446,-2.9448,-2.9374,-2.94,-2.9404,-2.9427,-2.944,-2.9439,-2.9413,-2.9407,-2.9446,-2.9451,-2.9457,-2.9559,-2.9463,-2.9466,-2.9469,-2.9683,-2.9687,-2.9691,0,0,0,0,0,0,-2.9351,-2.9361,-2.9445,-2.9403,-2.9412,-2.9406,-2.9433,-2.943,-2.9444,-2.9443,-2.9441,-2.9429,-2.9444,-2.9451,-2.9514,-2.956,-2.9468,-2.9472,-2.9679,-2.9684,-2.9689,-2.9765,0,0,0,0,0,0,-2.9348,-2.9361,-2.9394,-2.9404,-2.9415,-2.9501,-2.9436,-2.9433,-2.9452,-2.9445,-2.9458,-2.9457,-2.9442,-2.9508,-2.9518,-2.9564,-2.9476,-2.9675,-2.9681,-2.9687,-2.9758,-2.9771,-2.9783,0,0,0,0,0,-2.9343,-2.9413,-2.9396,-2.9407,-2.9456,-2.9504,-2.951,-2.9492,-2.9456,-2.9489,-2.9488,-2.9456,-2.9554,-2.9515,-2.9526,-2.9573,-2.9672,-2.9679,-2.9687,-2.9752,-2.9769,-2.9783,0,0,0,0,0,0,-2.9408,-2.9414,-2.9395,-2.947,-2.9487,-2.9494,-2.9534,-2.9511,-2.9538,-2.953,-2.9507,-2.951,-2.9577,-2.9582,-2.9539,-2.9658,-2.9606,-2.9617,-2.9653,-2.9668,-2.9681,-2.9677,-2.9479,0,0,0,0,0,-2.9431,-2.947,-2.9474,-2.954,-2.9549,-2.9541,-2.9561,-2.9546,-2.9563,-2.9569,-2.9573,-2.9589,-2.9624,-2.9647,-2.9678,-2.9759,-2.9761,-2.9797,-2.981,-2.9821,-2.9829,-2.9872,-2.9888,-2.9715,-2.9715,-2.9715,0,0,-2.9479,-2.9488,-2.9513,-2.9553,-2.9564,-2.9605,-2.9547,-2.9592,-2.9622,-2.9576,-2.9635,-2.9639,-2.9656,-2.9728,-2.976,-2.9734,-2.9877,-2.983,-2.9838,-2.9841,-2.9881,-2.9898,-2.9912,-2.972,-2.9719,-2.9718,0,0,-2.9587,-2.9598,-2.9654,-2.9667,-2.9685,-2.9679,-2.9693,-2.9704,-2.9704,-2.9764,-2.973,-2.9765,-2.9825,-2.9838,-2.9853,-2.9968,-2.994,-2.9979,-3.0045,-3.0087,-3.01,-3.0112,-3.0152,-3.0167,-2.9988,-2.9988,-2.9988,0,-2.9644,-2.9704,-2.9685,-2.9733,-2.9752,-2.9713,-2.977,-2.9783,-2.9811,-2.9824,-2.9795,-2.987,-2.9878,-2.9953,-2.9981,-2.9995,-3.0009,-2.9977,-3.01,-3.0112,-3.0123,-3.0161,-3.0176,-2.9993,-2.9992,-2.9992,-2.9991,0,-2.9772,-2.9815,-2.9858,-2.9886,-2.991,-2.9962,-2.9951,-2.9977,-2.9961,-2.9959,-3.002,-3.0029,-3.0062,-3.0079,-3.0064,-3.0152,-3.0135,-3.0104,-3.0051,-3.0144,-3.0179,-3.0194,-2.9999,-2.9998,-2.9996,-2.9995,0,0,-2.9919,-2.9938,-2.9954,-2.9967,-2.9985,-3.0017,-3.0068,-3.0101,-3.0123,-3.0144,-3.0186,-3.0238,-3.0209,-3.0226,-3.0212,-3.0249,-3.0339,-3.0213,-3.0213,-3.0235,-3.0436,-3.0459,-3.0476,-3.0322,-3.0324,-3.0326,-3.0435,0,-3.0026,-3.0113,-3.0099,-3.0183,-3.0222,-3.0187,-3.0231,-3.0247,-3.0247,-3.0279,-3.0278,-3.0315,-3.0275,-3.0285,-3.0321,-3.0321,-3.0379,-3.0313,-3.0359,-3.0361,-3.0354,-3.0495,-3.0518,-3.062,-3.0448,-3.0451,-3.0452,0,-3.016,-3.0187,-3.0276,-3.0288,-3.0304,-3.0344,-3.0373,-3.0405,-3.0423,-3.042,-3.044,-3.0419,-3.047,-3.0418,-3.0487,-3.0442,-3.0461,-3.0464,-3.0467,-3.0469,-3.0411,-3.0499,-3.0652,-3.0667,-3.0474,-3.0472,-3.0471,0,-3.0257,-3.0316,-3.0376,-3.0388,-3.0405,-3.0434,-3.0442,-3.0457,-3.0478,-3.0504,-3.0517,-3.0548,-3.0565,-3.059,-3.0578,-3.0542,-3.0649,-3.0596,-3.0647,-3.0648,-3.067,-3.0668,-3.0826,-3.0685,-3.0684,-3.0684,-3.0684,0,-3.0376,-3.0432,-3.042,-3.0457,-3.0518,-3.0502,-3.0562,-3.0566,-3.058,-3.0617,-3.059,-3.0625,-3.0608,-3.0643,-3.0634,-3.0692,-3.07,-3.0699,-3.0696,-3.07,-3.07,-3.071,-3.0703,-3.0688,-3.0687,-3.0686,-3.0686,0,-3.0494,-3.0488,-3.0552,-3.0563,-3.0567,-3.0612,-3.0621,-3.0656,-3.0654,-3.0701,-3.0712,-3.0709,-3.0748,-3.0739,-3.0782,-3.0776,-3.0849,-3.0838,-3.0843,-3.0839,-3.089,-3.0885,-3.1059,-3.108,-3.0927,-3.0928,-3.0929,0,-3.0569,-3.0611,-3.0627,-3.065,-3.0661,-3.0699,-3.072,-3.0707,-3.073,-3.0754,-3.0786,-3.0823,-3.0851,-3.0915,-3.0916,-3.0949,-3.0937,-3.0996,-3.0942,-3.0945,-3.0937,-3.0934,-3.0937,-3.1006,-3.1008,-3.1009,-3.101,0,-3.0703,-3.0699,-3.0731,-3.0763,-3.079,-3.0814,-3.0836,-3.0856,-3.0844,-3.0872,-3.0912,-3.0934,-3.0979,-3.1015,-3.1046,-3.1054,-3.103,-3.1028,-3.1041,-3.1046,-3.1046,-3.1045,-3.087,-3.1023,-3.1022,-3.1021,-3.1021,-3.102,-3.0801,-3.0837,-3.0854,-3.0891,-3.0906,-3.0927,-3.096,-3.0963,-3.0996,-3.1031,-3.1022,-3.1067,-3.1084,-3.1123,-3.1135,-3.117,-3.1148,-3.1168,-3.1172,-3.1177,-3.1183,-3.1043,-3.1176,-3.1176,-3.1175,-3.1175,-3.1175,0,-3.0933,-3.0942,-3.0977,-3.1008,-3.1038,-3.1015,-3.1038,-3.1063,-3.1104,-3.1122,-3.1151,-3.1197,-3.1233,-3.1238,-3.1272,-3.1299,-3.1289,-3.1309,-3.1305,-3.1308,-3.1201,-3.1185,-3.1316,-3.1316,-3.1316,-3.1316,-3.1316,-3.1316,-3.1004,-3.1063,-3.1061,-3.1127,-3.1137,-3.1181,-3.1196,-3.1216,-3.123,-3.1283,-3.1313,-3.1316,-3.133,-3.1364,-3.1396,-3.1397,-3.141,-3.1433,-3.143,-3.1329,-3.1315,-3.1302,-3.1287,-3.1437,-3.1437,-3.1533,-3.1534,-3.1535]},{"header":{"parameterUnit":"m.s-1","parameterCategory":1,"la1":30.2991,"la2":30.254,"lo1":-89.0895,"lo2":-89.0444,"dy":0.0017,"dx":0.0017,"nx":28,"ny":28,"refTime":"2023-09-18T21:00:00:Z","depth":0,"parameterNumber":3,"parameterNumberName":"V-component_of_WINDS"},"data":[0,0,0,0,0,0,0,0,0,0,0,0,0,0,0,0,0,0,0,0,0,0,0,0,0,0,0,0,0,0,0,0,0,0,0,0,0,0,0,0,0,0,0,0,0,0,0,0,0,0,0,0,0,0,0,0,0,0,2.6402,2.6402,0,2.6402,2.6402,2.6402,2.6414,2.6415,2.6415,2.6416,2.6412,2.6412,2.6411,0,0,0,0,0,0,0,0,0,0,0,0,0,2.6413,2.6413,2.6402,2.6402,2.6402,2.6402,2.6402,2.6402,2.6414,2.6415,2.6415,2.6416,2.6412,2.6412,2.6411,0,0,0,0,0,0,0,0,0,0,0,0,0,2.641,2.6413,2.6402,2.6409,2.6409,2.6402,2.6402,2.6402,2.6414,2.6415,2.6415,2.6416,2.6412,2.6412,2.6411,2.6396,0,0,2.6409,2.6409,0,0,0,0,0,0,0,0,2.641,2.6409,2.6408,2.6408,2.6409,2.6409,2.6404,2.64,2.6414,2.6412,2.6416,2.6416,2.641,2.641,2.6408,2.6396,2.6396,2.6409,2.6409,2.6408,2.6408,0,0,0,0,0,0,0,2.641,2.641,2.6402,2.6408,2.6409,2.6411,2.6411,2.6403,2.6408,2.6413,2.6414,2.6413,2.6411,2.6409,2.6408,2.6396,2.6409,2.6408,2.6408,2.6408,2.6371,2.6371,0,0,0,0,0,0,2.641,2.641,2.6402,2.6402,2.6411,2.641,2.6411,2.6408,2.6408,2.6409,2.6413,2.6414,2.641,2.6409,2.6408,2.6391,2.6408,2.6408,2.6407,2.6372,2.6371,2.637,0,0,0,0,0,0,2.641,2.6409,2.6402,2.6406,2.6405,2.641,2.6407,2.6408,2.6406,2.6409,2.6409,2.641,2.641,2.6409,2.6399,2.6391,2.6407,2.6407,2.6372,2.6372,2.6371,2.6356,0,0,0,0,0,0,2.641,2.6409,2.6404,2.6406,2.6405,2.6394,2.6406,2.6408,2.6405,2.6407,2.6407,2.6407,2.6411,2.64,2.6399,2.639,2.6406,2.6373,2.6372,2.6371,2.6357,2.6354,2.6352,0,0,0,0,0,2.6411,2.6399,2.6404,2.6403,2.6399,2.6393,2.6393,2.6398,2.6405,2.6399,2.6401,2.6407,2.6392,2.6399,2.6397,2.6389,2.6374,2.6372,2.6371,2.6358,2.6355,2.6352,0,0,0,0,0,0,2.6395,2.64,2.6405,2.6394,2.6393,2.6395,2.6389,2.6394,2.6391,2.6392,2.6398,2.6398,2.6387,2.6387,2.6395,2.6374,2.6384,2.6382,2.6375,2.6372,2.6369,2.6369,2.6406,0,0,0,0,0,2.6391,2.6386,2.639,2.638,2.638,2.6384,2.6382,2.6386,2.6385,2.6385,2.6386,2.6384,2.6379,2.6375,2.6371,2.6357,2.6357,2.635,2.6348,2.6346,2.6344,2.6336,2.6333,2.6366,2.6366,2.6366,0,0,2.6381,2.6383,2.6379,2.6377,2.6377,2.6372,2.6384,2.6378,2.6373,2.6384,2.6374,2.6375,2.6374,2.6362,2.6356,2.6361,2.6335,2.6344,2.6343,2.6342,2.6335,2.6332,2.6329,2.6365,2.6365,2.6365,0,0,2.636,2.6361,2.6353,2.6353,2.6353,2.6357,2.6355,2.6356,2.6357,2.6349,2.6356,2.6351,2.6342,2.6341,2.6339,2.6319,2.6324,2.6317,2.6304,2.6297,2.6294,2.6292,2.6284,2.6281,2.6315,2.6315,2.6315,0,2.6347,2.634,2.6348,2.6341,2.6339,2.635,2.6341,2.634,2.6339,2.6337,2.6343,2.6333,2.6332,2.632,2.6315,2.6314,2.6311,2.6316,2.6294,2.6292,2.629,2.6282,2.6279,2.6314,2.6315,2.6315,2.6315,0,2.6325,2.632,2.6313,2.6312,2.631,2.6302,2.6307,2.6304,2.6309,2.6311,2.6302,2.6302,2.6298,2.6295,2.6299,2.6284,2.6286,2.6293,2.6303,2.6286,2.6278,2.6276,2.6313,2.6313,2.6314,2.6314,0,0,2.6293,2.6297,2.6294,2.6294,2.6295,2.6291,2.6284,2.6281,2.6277,2.6276,2.627,2.6263,2.6269,2.6267,2.6271,2.6264,2.6247,2.6272,2.6272,2.6266,2.6229,2.6223,2.622,2.6251,2.6251,2.625,2.6229,0,2.6272,2.626,2.6267,2.6254,2.6249,2.6259,2.6253,2.6252,2.6255,2.625,2.6253,2.6247,2.6256,2.6255,2.6249,2.6251,2.624,2.6252,2.6244,2.6244,2.6243,2.6216,2.621,2.619,2.6226,2.6226,2.6225,0,2.6246,2.6245,2.6231,2.6234,2.6232,2.6226,2.6224,2.622,2.622,2.6222,2.622,2.6226,2.6218,2.6229,2.6217,2.6226,2.6223,2.6223,2.6223,2.6221,2.6233,2.6213,2.6183,2.618,2.6221,2.6221,2.6222,0,2.6223,2.6218,2.621,2.6209,2.6212,2.6208,2.6208,2.6209,2.6207,2.6204,2.6203,2.6199,2.6197,2.6194,2.6198,2.6206,2.6186,2.6198,2.6187,2.6187,2.6181,2.6181,2.615,2.6181,2.6181,2.6181,2.6181,0,2.6199,2.619,2.6199,2.6194,2.6184,2.6192,2.6182,2.6184,2.6184,2.6179,2.6187,2.6182,2.6188,2.6183,2.6187,2.6177,2.6176,2.6177,2.6177,2.6175,2.6175,2.6172,2.6173,2.6181,2.6181,2.6181,2.6181,0,2.6171,2.6177,2.6168,2.6172,2.6173,2.6166,2.6169,2.6163,2.6167,2.616,2.6158,2.6163,2.6158,2.6162,2.6157,2.6159,2.6145,2.6148,2.6145,2.6146,2.6135,2.6135,2.6099,2.6095,2.613,2.613,2.613,0,2.6155,2.6148,2.6152,2.6149,2.615,2.6145,2.6143,2.6151,2.6148,2.6148,2.6142,2.6138,2.6135,2.6125,2.6128,2.6123,2.6126,2.6114,2.6125,2.6123,2.6125,2.6124,2.6123,2.6111,2.611,2.611,2.611,0,2.6124,2.6128,2.6125,2.6123,2.6121,2.6119,2.6119,2.6116,2.6123,2.612,2.6115,2.6113,2.6107,2.6102,2.6099,2.6099,2.6105,2.6107,2.6104,2.6101,2.6099,2.6099,2.6138,2.6107,2.6107,2.6107,2.6108,2.6108,2.6101,2.6096,2.6098,2.6094,2.6095,2.6094,2.6089,2.6092,2.6088,2.6085,2.609,2.6084,2.6083,2.608,2.6079,2.6074,2.6079,2.6075,2.6074,2.6072,2.607,2.6101,2.6073,2.6073,2.6074,2.6074,2.6074,0,2.6071,2.6073,2.6069,2.6068,2.6066,2.6073,2.6073,2.6069,2.6064,2.6064,2.6061,2.6055,2.605,2.6053,2.6049,2.6044,2.6047,2.6042,2.6042,2.6042,2.6067,2.6069,2.604,2.604,2.604,2.604,2.604,2.604,2.6054,2.6046,2.6049,2.6041,2.6043,2.6037,2.6036,2.6035,2.6035,2.6029,2.6025,2.6027,2.6028,2.6024,2.602,2.6021,2.6018,2.6013,2.6014,2.6037,2.604,2.6043,2.6046,2.6013,2.6013,2.599,2.599,2.599]}]]